This demonstration page uses our WeatherBlox Daily Observations layout. Learn more.

Left ArrowRight Arrow

39.51506, -84.39828

Hourly Observations for September 1, 2015

Temp ( °F °C ) Dew Point ( °F °C ) Humidity (%) Winds ( mph kmh ) Pressure ( in mb ) Visibility ( mi km ) Precip ( " mm )
12:15 am 00:15 Clear 74 23.6 71 21.5 88 88 Calm 30.09 1019 7 11.26538 0 0
12:35 am 00:35 Clear 72 22.4 69 20.5 89 89 Calm 30.09 1019 7 11.26538 0 0
12:55 am 00:55 Clear with Mist and Fog 71 21.8 68 19.9 89 89 Calm 30.09 1019 4 6.43736 0 0
1:15 am 01:15 Clear with Mist and Fog 70 20.9 66 19.1 90 90 Calm 30.09 1019 3 4.82802 0 0
1:35 am 01:35 Clear with Mist and Fog 70 20.9 66 19.1 90 90 Calm 30.09 1019 5 8.0467 0 0
1:55 am 01:55 Clear with Mist and Fog 69 20.8 66 19 90 90 Calm 30.09 1019 3 4.82802 0 0
2:15 am 02:15 Clear with Mist and Fog 69 20.8 66 19.1 90 90 Calm 30.09 1019 3 4.82802 0 0
2:35 am 02:35 Clear with Mist and Fog 69 20.8 67 19.3 91 91 Calm 30.09 1019 2.5 4.02335 0 0
2:55 am 02:55 Clear with Mist and Fog 69 20.8 67 19.3 91 91 Calm 30.09 1019 2.5 4.02335 0 0
3:15 am 03:15 Clear with Mist and Fog 69 20.8 67 19.3 91 91 Calm 30.09 1019 2.5 4.02335 0 0
3:35 am 03:35 Mostly Cloudy with Mist and Fog 69 20.8 67 19.3 91 91 Calm 30.09 1019 0.75 1.207005 0 0
3:55 am 03:55 Clear with Mist and Fog 69 20.8 67 19.3 91 91 Calm 30.09 1019 3 4.82802 0 0
4:15 am 04:15 Clear with Mist and Fog 69 20.8 67 19.3 91 91 Calm 30.09 1019 2 3.21868 0 0
4:35 am 04:35 Clear with Mist and Fog 69 20.8 67 19.3 91 91 Calm 30.09 1019 2.5 4.02335 0 0
4:55 am 04:55 Mostly Cloudy with Fog 69 20.8 67 19.3 91 91 Calm 30.09 1019 0.5 0.80467 0 0
5:15 am 05:15 Mostly Cloudy with Mist and Fog 69 20.8 67 19.3 91 91 Calm 30.09 1019 1.75 2.816345 0 0
5:35 am 05:35 Mostly Cloudy with Fog 69 20.8 67 19.3 91 91 Calm 30.09 1019 0.5 0.80467 0 0
5:55 am 05:55 Mostly Cloudy with Mist and Fog 69 20.8 67 19.3 91 91 Calm 30.09 1019 1.5 2.41401 0 0
6:15 am 06:15 Clear with Mist and Fog 69 20.8 67 19.3 91 91 Calm 30.12 1020 2.5 4.02335 0 0
6:35 am 06:35 Mostly Cloudy with Mist and Fog 67 19.5 64 18 91 91 Calm 30.12 1020 1 1.60934 0 0
6:55 am 06:55 Clear with Mist and Fog 69 20.6 66 19.1 91 91 Calm 30.12 1020 3 4.82802 0 0
7:15 am 07:15 Mostly Cloudy with Mist and Fog 69 20.3 66 18.8 91 91 Calm 30.12 1020 0.75 1.207005 0 0
7:35 am 07:35 Mostly Cloudy with Mist and Fog 69 20.6 66 19.1 91 91 Calm 30.12 1020 0.75 1.207005 0 0
7:55 am 07:55 Mostly Cloudy with Fog 69 20.8 67 19.3 91 91 Calm 30.12 1020 5 8.0467 0 0
8:15 am 08:15 Cloudy with Fog 69 20.8 67 19.3 91 91 Calm 30.15 1021 5 8.0467 0 0
8:35 am 08:35 Mostly Cloudy with Mist and Fog 69 20.8 67 19.5 92 92 Calm 30.15 1021 1 1.60934 0 0
8:55 am 08:55 Sunny with Mist and Fog 70 21.3 68 19.9 92 92 Calm 30.15 1021 2.5 4.02335 0 0
9:15 am 09:15 Sunny with Mist and Fog 74 23.6 72 22.1 91 91 Calm 30.15 1021 4 6.43736 0 0
9:35 am 09:35 Sunny 74 23.6 72 22 91 91 Calm 30.15 1021 7 11.26538 0 0
9:55 am 09:55 Sunny 76 24.6 72 22.1 86 86 Calm 30.12 1020 7 11.26538 0 0
10:15 am 10:15 Sunny 77 25.1 71 21.5 81 81 Calm 30.12 1020 10 16.0934 0 0
10:35 am 10:35 Sunny 80 26.5 72 22.4 78 78 Calm 30.12 1020 10 16.0934 0 0
10:55 am 10:55 Sunny 80 26.5 71 21.6 75 75 Calm 30.12 1020 10 16.0934 0 0
11:15 am 11:15 Sunny 81 27.2 71 21.7 72 72 Calm 30.12 1020 10 16.0934 0 0
11:35 am 11:35 Sunny 82 28 71 21.7 69 69 Calm 30.12 1020 10 16.0934 0 0
11:55 am 11:55 Partly Cloudy 83 28.4 71 21.9 68 68 SSW 5 7 30.12 1020 10 16.0934 0 0
12:15 pm 12:15 Partly Cloudy 83 28.5 70 21 64 64 WSW 3 6 30.12 1020 10 16.0934 0 0
12:35 pm 12:35 Partly Cloudy 84 29.1 68 20.2 59 59 SW 5 7 30.12 1020 10 16.0934 0 0
12:55 pm 12:55 Partly Cloudy 86 30.2 70 21.2 59 59 SW 3 6 30.09 1019 10 16.0934 0 0
1:15 pm 13:15 Partly Cloudy 87 30.7 70 21.3 57 57 S 7 11 30.09 1019 10 16.0934 0 0
1:35 pm 13:35 Sunny 84 29.1 67 19.5 56 56 WSW 5 7 30.12 1020 10 16.0934 0 0
1:55 pm 13:55 Sunny 89 31.5 70 21.3 55 55 W 6 9 30.06 1018 10 16.0934 0 0
2:15 pm 14:15 Sunny 90 32.1 71 21.5 53 53 SSW 3 6 30.06 1018 10 16.0934 0 0
2:35 pm 14:35 Sunny 87 30.7 68 20 53 53 WSW 5 7 30.06 1018 10 16.0934 0 0
2:55 pm 14:55 Sunny 90 32.1 69 20.4 50 50 Calm 30.06 1018 10 16.0934 0 0
3:15 pm 15:15 Partly Cloudy 90 32.1 67 19.3 47 47 Calm 30.06 1018 10 16.0934 0 0
3:35 pm 15:35 Mostly Cloudy 90 32.1 66 18.8 45 45 SSW 5 7 30.06 1018 10 16.0934 0 0
3:55 pm 15:55 Mostly Cloudy 90 32.1 69 20.4 50 50 W 3 6 30.03 1017 10 16.0934 0 0
4:15 pm 16:15 Partly Cloudy 90 32.1 67 19.2 46 46 SW 7 11 30.03 1017 10 16.0934 0 0
4:35 pm 16:35 Partly Cloudy 90 32.1 66 18.9 46 46 WSW 7 11 30.03 1017 10 16.0934 0 0
4:55 pm 16:55 Mostly Cloudy 90 32.1 68 20.2 49 49 W 5 7 30.03 1017 10 16.0934 0 0
5:15 pm 17:15 Mostly Cloudy 87 30.7 68 20 53 53 WSW 12 19 30.03 1017 10 16.0934 0 0
5:35 pm 17:35 Cloudy with Light Rain 83 28.3 67 19.6 59 59 Calm 30.06 1018 10 16.0934 0 0
5:55 pm 17:55 Mostly Cloudy 83 28.3 68 19.8 60 60 WSW 7 11 30.06 1018 10 16.0934 0 0
6:15 pm 18:15 Mostly Cloudy 83 28.1 70 21.1 66 66 Calm 30.06 1018 10 16.0934 0 0
6:35 pm 18:35 Sunny 83 28.6 66 19 56 56 NW 3 6 30.03 1017 10 16.0934 0 0
6:55 pm 18:55 Sunny 82 28 67 19.7 61 61 N 5 7 30.06 1018 10 16.0934 0 0
7:15 pm 19:15 Sunny 81 27.1 69 20.4 67 67 Calm 30.06 1018 10 16.0934 0 0
7:35 pm 19:35 Partly Cloudy 81 27.2 70 21 69 69 Calm 30.06 1018 10 16.0934 0 0
7:55 pm 19:55 Sunny 82 27.5 72 22.2 73 73 Calm 30.03 1017 10 16.0934 0 0
8:15 pm 20:15 Clear 77 25.1 70 21 78 78 Calm 30.09 1019 10 16.0934 0 0
8:35 pm 20:35 Clear 77 25.1 69 20.6 76 76 Calm 30.09 1019 10 16.0934 0 0
8:55 pm 20:55 Clear 77 25.1 72 22.1 83 83 Calm 30.09 1019 10 16.0934 0 0
9:15 pm 21:15 Clear 77 24.9 70 21.1 79 79 Calm 30.09 1019 10 16.0934 0 0
9:35 pm 21:35 Clear 74 23.6 70 21 85 85 Calm 30.09 1019 10 16.0934 0 0
9:55 pm 21:55 Clear 74 23.6 70 21.1 86 86 Calm 30.09 1019 7 11.26538 0 0
10:15 pm 22:15 Clear 74 23.6 71 21.5 88 88 Calm 30.09 1019 7 11.26538 0 0
10:35 pm 22:35 Clear with Mist and Fog 74 23.1 70 21 88 88 Calm 30.09 1019 5 8.0467 0 0
10:55 pm 22:55 Clear with Mist and Fog 72 22.2 69 20.3 89 89 Calm 30.09 1019 5 8.0467 0 0
11:15 pm 23:15 Clear with Mist and Fog 70 21.3 67 19.5 90 90 Calm 30.09 1019 5 8.0467 0 0
11:35 pm 23:35 Clear with Mist and Fog 71 21.6 67 19.7 89 89 Calm 30.09 1019 5 8.0467 0 0
11:55 pm 23:55 Clear with Mist and Fog 69 20.8 66 19 90 90 Calm 30.09 1019 4 6.43736 0 0

Powered by AerisWeather